User: anonymous   Login
Location: Mt. Chestnut Observatory
(40.9038°N, 79.9956°W)
Time: 12:51:34
(UTC-04:00)
Language:

Cosmos 2034 Rocket - Orbit

View from above orbital plane
View from above orbital plane
View from above satellite
View from above satellite

Ground track
Ground track

The orbit data is extracted from the following two-line orbital elements,

1 20150U 89059B   15089.24887363  .00000065  00000-0  50955-4 0  9992
2 20150 082.9418 334.9455 0029614 026.5452 092.5771 13.75599306289032
Epoch (UTC): 30 March 2015 05:58:22
Eccentricity: 0.0029614
inclination: 82.9418°
perigee height: 958 km
apogee height: 1001 km
right ascension of ascending node: 334.9455°
argument of perigee: 26.5452°
revolutions per day: 13.75599306
mean anomaly at epoch: 92.5771°
orbit number at epoch: 28903

The dashed part of the orbit path shows where the satellite is in the earth's shadow,  

DLR